Etusivu
METAR-TAF:

METAR-TAF

Lentoasemat :

Town MET

Windhoek, Namibia

Leveyspiiri: 22-34S, Pituuspiiri: 017-06E, korkeus merenpinnasta: 1725 m

Tämänhetkinen sää

Tämä raportti tehtiin 12 minuuttia sitten, kello 20.00 UTC
Tuuli 4 kn etelästä/lounaasta
Lämpötila 28°C
Kosteus 22%
Ilmanpaine 1023 hPa

METAR: FYWW 222000Z AUTO 20004KT //// // ////// 28/04 Q1023

Aika: 22:12 (20:12 UTC)


TAF: puuttuu

Säähavainnot ja -ennusteet yli 4000 lentoasemalta (METAR- ja TAF-raportit).

Käytössä olevat sääasemat on merkitty karttaan keltaisilla ja punaisilla pisteillä.

Aseta hiiri pisteen päälle nähdäksesi sääaseman nimen.

Klikkaa sitten nähdäksesi säähavainnot ja -ennusteet.

Kartan vaihtaminen: klikkaa mustalla rastilla varustettuja vihreitä pisteitä, niin voit zoomata sisään; viivalla varustettua vihreää pistettä, niin voit zoomata ulos tai vihreitä nuolia, niin pääset viereisille kartoille.


METAR-TAF: